"Pseudo-MPEC" for A10eb70

Created 2019 Jun 19 17:07:08 UT using Find_Orb

Click here for an explanation of pseudo-MPECs

 
 Astrometry: 
     A10eb70  C2019 06 09.44817116 41 34.65 -18 45 44.2    ~69EM 17.27oVNEOCPT08
     A10eb70  C2019 06 09.46244816 41 48.95 -18 41 21.6    ~69EM 17.65oVNEOCPT08
     A10eb70  C2019 06 09.46615016 41 52.61 -18 40 13.3    ~69EM 17.69oVNEOCPT08
     A10eb70  C2019 06 09.47129616 41 57.77 -18 38 39.1    ~69EM 17.54oVNEOCPT08
     A10eb70 KC2019 06 09W53KLEj`4iuefVDAstrometryQrm8S\2nPGD';e%lBn%Gt$8[8'0K88
     A10eb70 KC2019 06 09WGfVx9Ikl+Wa6$_qsJQ?mExn@,Unge4+\gD_27DCRZ!7Rub):/(9K88
     A10eb70 KC2019 06 09#;dWdQvjf\-esq/#D=ov81YSt;Fw;;O%mI3bOtB:m:$/qHLfx?w1K88
     A10eb70 IC2019 06 09LqLrID3dNm1TDl^`1Rt$fGjd@BOlmdQ[NDl\;kx-c7GOCfIG,JlKL01
     A10eb70  C2019 06 09j4\[VxWR3_PYBkJtR4e=/@f0LkVw[DxrTL$eXkK/JGOAS=--ZpMZL01
     A10eb70  C2019 06 09Sk7+'5)S;7%sW^d\mi)G$[e-o[4opBaaMBv0u8!1X^P:+?CS7HSrL01
     A10eb70 pC2019 06 093;gI)6s%QZRs0bndohB-7974FN6SF$HgMRWW/4d(xLw!jFig--$xL01
     A10eb70 KC2019 06 108FLOL-Hm4TJ4f3*Vm!!mjhQF!O8!UA!'N$tb2yPR2R\(SmOTnBy6H21
     A10eb70 KC2019 06 10wP6xZNS5J/qR3E;yDkR1x49Q'i+Oe^eb5U:I^n8.#/`jUUiS!Ay0H21
     A10eb70 KC2019 06 10XPk!5A@t`]cwfE$bhHlC$6P%1o$A'redacted;.3\C.qn_Zd7F\%H21
     A10eb70  C2019 06 10.39878616 58 11.10 -14 14 58.3    ~6ACq 17.54oVNEOCPT08
     A10eb70  C2019 06 10.40158716 58 13.33 -14 14 14.1    ~6ACq 17.77oVNEOCPT08
     A10eb70  C2019 06 10.40879216 58 19.15 -14 12 19.1    ~6ACq 18.22oVNEOCPT08
     A10eb70  C2019 06 10.41821516 58 26.74 -14 09 49.3    ~6ACq 17.79oVNEOCPT08
     A10eb70 KC2019 06 109mO+j-A@fSiDNpR;,OIcGr[\9\!Pa[C.0NxqJ7Wb[+Xg!?qJ(rB*E23
     A10eb70 KC2019 06 10SYxiZ(*;K8S6QW/C4qXt)FuHqy*iBivUA@5#J*(cd[Spmb9'3qU=E23
     A10eb70 KC2019 06 10q*?h*J19.[4NJ7R.?;MTICG16)y-8%C[G'_YaRAvfo#G.v=5Qf2xE23
     A10eb70 KC2019 06 10QH[PVtF5=\6xuo_N65:_5rawn$3EDExOHYZ$SmJclick]H8-afwvK88
     A10eb70 KC2019 06 10Z]eRxc!POxOwXcUeD6``8xmTj*SMp_%3`'ca[l9ejKNE7rH'3.s1K88
     A10eb70 KC2019 06 10UM*EX]M(vR;]4XxoJ74:==:T55H$.4Y\r$n/+v+^7BLItAs20h)MK88
     A10eb70 KC2019 06 10(]xreZS[K904E`?]w/F6*t:b+ADB^B:#DuVYk[LVoqh.n^=nuHhwK88
     A10eb70 KC2019 06 10.94545817 06 20.44 -11 56 51.0    ~6B0M 17.9 GVNEOCPC95
     A10eb70 KC2019 06 10.94987817 06 23.69 -11 55 45.7    ~6B0M 18.0 GVNEOCPC95
     A10eb70 KC2019 06 10.95429817 06 27.07 -11 54 41.2    ~6B0M 18.2 GVNEOCPC95
     A10eb70 KC2019 06 10.95872017 06 30.35 -11 53 36.8    ~6B0M 17.7 GVNEOCPC95
     A10eb70 KC2019 06 11P]^N%BptynIU':jTJ9%g'h[f+);-rl$ObQU^!)]JRlQF\_qu?8V-Z84
     A10eb70 KC2019 06 11MvlV7N^$Q3@\BX]Ko-Wa9$wxOLqg\$:YqJJKy.O*vIf[#DP1UkJYZ84
     A10eb70 KC2019 06 11hbntOPRC/In4tGB#QrLqk-t57+D(/$Jff:pIl9XpaFj.CH_;NV,6Z84
     A10eb70 KC2019 06 11+uMj@0xZ@SZ4(4vi[AR$i7?=HL-S![wAkw?%q8X+LZ2.obRP)*TLZ84
     A10eb70 KC2019 06 11uMDCSQPU2NvW%p]Q.;\4PHwE1OOnY]AT0eRd\?)do:jewuMmWbC_H21
     A10eb70 KC2019 06 11Bkhq_GTUEa(bx!Ebq_,6]'*9Ms?od-@I.tP=8OYu7WP6?!vLl3-0H21
     A10eb70 KC2019 06 11qFjD?/m)p3-Xa7OSfbNX?Yn9ZD?1L6(MLlisP9,]KmNUG:=Or7bAH21
     A10eb70 KC2019 06 11Pweo#wunYHt`oYy1@6]gdl4$/QFZrPW7E5hu)HCW.lOAkaa'xOkjH21
     A10eb70 KC2019 06 11=JS5!TpM*'d*SYEUV#cIR^nmFvkOA5FEi\w,M[38ePEDO!,=$9!rH21
     A10eb70 KC2019 06 11,!HRPjgw5036-?=iR/.\T-2TbKfWM8NapY+]0tnC0U(DH7-+l:qVH21
     A10eb70 KC2019 06 115LvGS4e[u[:Z$UfG?B=G@f_Mq+Ah+wW1s$dherebC7X:rw?M=@l9K88
     A10eb70 KC2019 06 11^:Z$Sau^]=i4NUb-sJPsa/hY`a`W'Sq?G+Clr^)i'\K0*!)EdqY$K88
     A10eb70 KC2019 06 11X?\:rS3s^1s*)W4M_,kforu2+pqi;6`t:s:vgfO`31Yrok,B*8gYK88
     A10eb70 KC2019 06 11$)?tT.5jH0+A$'bj1c*DNw/sm:`LriElxS\hFMwJ/`n@#y+q5)Z7104
     A10eb70 KC2019 06 11M,cS$,yK*,-M.ST`#cFK)#$H.u]7UNn(ZW69=iduq)*$]j[Gj,Pm104
     A10eb70 KC2019 06 111R!,5mbaDxr47i#UkyLN]P2'eYKrc]si+@+I[*SmwBIhuO=XZ)9E104
     A10eb70 KC2019 06 12d=%\uUD[PO^13:?R.NW^I`![@^Nf8]t8U)\j3eOEyid+QZYb\ItqH21
     A10eb70 KC2019 06 12iXEUY7m9e+nng9(,h'_1Ejc%#%w9Nq0*/McF@1KJZlcS+C8qB)4GH21
     A10eb70 KC2019 06 12`9xhp0`t3=t.s`3w@Z;63FYK=U.+oETogJYM$S:ANnh6l.p-x]-1H21
     A10eb70 KC2019 06 12.%f=0B2Uv[BG:I%Hd!PfoVaLn$/5r'!i7CUG?6C@*mRW!(wpFTXZH21
     A10eb70  C2019 06 12.33015 17 23 29.71 -06 51 33.8    ~6C8M 18.0 GVNEOCPI52
     A10eb70  C2019 06 12.33057 17 23 29.91 -06 51 28.5    ~6C8M 17.9 GVNEOCPI52
     A10eb70  C2019 06 12.33099 17 23 30.15 -06 51 23.7    ~6C8M 18.4 GVNEOCPI52
     A10eb70  C2019 06 12.33140 17 23 30.40 -06 51 18.8    ~6C8M 18.2 GVNEOCPI52
     A10eb70  C2019 06 13.23830 17 32 49.87 -04 06 03.8    ~6D67 18.2 GVNEOCPI52
     A10eb70  C2019 06 13.23855 17 32 50.02 -04 06 00.7    ~6D67 18.7 GVNEOCPI52
     A10eb70  C2019 06 13.23879 17 32 50.13 -04 05 58.6    ~6D67 18.3 GVNEOCPI52
     A10eb70  C2019 06 13.23903 17 32 50.24 -04 05 56.3    ~6D67 18.9 GVNEOCPI52
     A10eb70 KC2019 06 13*D(sct+Uq:VkPyeZleg#fo!]pUoviu[3XTOuO4PN`kX`1m,vZd=O160
     A10eb70 KC2019 06 13eTytIPcx1QVeRno\oww:V]KIC)-?2LMfvtMo+8O7aDMVBJJR-P!+160
     A10eb70 KC2019 06 13,^8%J?R6?N,]Y,-L\xgZLwvGT^Q/i]Gexplanation[bL:tBI1y\160
     A10eb70 KC2019 06 13`bT_O41L7-NEk%/4cVp%\ptyjpVo^t0GNovbZ#SAQS3VbGsrqyUh160
     A10eb70 KC2019 06 13M.2C0B9n#oDrFaRI:sm`V/b*(Y)7!VEhSU0F#'Is%A?fMh[!B(;x160
     A10eb70 KC2019 06 138W\tkeeFu04O?yuvZyo_thHVa#xCrQ5P3cASNg(8VW1/-.i,#(l.A17
     A10eb70 KC2019 06 13(I_UmX,\bsF]LN$Ug4fxCM,23don0#vfM6AtHMVd!VG'+K\r`#J]A17
     A10eb70 KC2019 06 13P1JO?2_BbKIxGwt.dOd1Wo7mAQpF4!W^?,#+EmJ#lq!lF/WusB,CA17
     A10eb70 KC2019 06 14YddJ0y%A7D'oOLowQriM5H\Fx0i*S^qg/(@4#W3+L1u9bn\euLgX204
     A10eb70 KC2019 06 14reh;Jur.l9qNY`Rjs]=iH8]1`sP\E=nr]6ga1_o#RARe'^VTuMwC204
     A10eb70 KC2019 06 14?ZTZT^pSVdKm9T1R#h_DtJKXYS-WwM7+-ED#yAJmA=G,JJt/oo3tH21
     A10eb70 KC2019 06 14'nT[!12Nq5H;8!;3%bTC/:G4i0]8C1?7eT9PfA-^WUyI0o]5Wk2AH21
     A10eb70 KC2019 06 14,YUuil3g#,$CaqM'mZeJi?Myh05yVG@b[O7JAJkyVJBqAoyhP8s7H21
     A10eb70  C2019 06 14.28496 17 41 44.70 -01 23 41.5    ~6E77 19.1 GVNEOCPI52
     A10eb70  C2019 06 14.28521 17 41 44.81 -01 23 39.3    ~6E77 19.2 GVNEOCPI52
     A10eb70  C2019 06 14.28545 17 41 44.91 -01 23 37.1    ~6E77 18.6 GVNEOCPI52
     A10eb70  C2019 06 14.28569 17 41 45.01 -01 23 35.4    ~6E77 19.6 GVNEOCPI52

Station data:
(104) San Marcello Pistoiese  (N44.063037 E10.804200)  Italy. 0.40-m f/5
   reflector.
(160) Castelmartini  (N43.823061 E10.841440)  Italy.
(204) Schiaparelli Observatory  (N45.867933 E8.770800)  Italy.  Observer L.
   Buzzi. 0.60-m f/4.64 Newtonian + CCD.
(A17) Guidestar Observatory, Weinheim  (N49.545393 E8.681520)  Germany.
(C95) SATINO Remote Observatory, Haute Provence  (N43.932042 E5.712390)
   France. 0.60-m f/3.2 Newtonian reflector + CCD.
(E23) Arcadia  (S33.621199 E151.071190)  Australia/NSW.
(H21) Astronomical Research Observatory, Westfield  (N39.483057 W87.968270)
   US/Illinois. 0.76-m f/3.0 astrograph + CCD.
(I52) Steward Observatory, Mt. Lemmon Station  (N32.442547 W110.788920)
   US/Arizona.  Observers T. A. Pruyne, B. M. Africano, E. J. Christensen, G.
   A. Farneth, D. C. Fuls, A. R. Gibbs, A. D. Grauer, H. Groeller, J. A.
   Johnson, R. A. Kowalski, S. M. Larson, G. J. Leonard, R. L. Seaman, F. C.
   Shelly. 1.0-m reflector + CCD.
(K88) GINOP-KHK, Piszkéstető  (N47.917622 E19.893600)  Hungary.  Observer K.
   Sárneczky. 0.60-m Schmidt + CCD.
(L01) Višnjan Observatory, Tičan  (N45.290900 E13.749300)  Croatia.
   Observers K. Korlević, E. Pettarin. Measurer E. Pettarin. 1.0-m f/2.9
   reflector + CCD.
(T08) ATLAS-MLO, Mauna Loa  (N19.535772 W155.576400)  US/Hawaii.  Observers
   L. Denneau, A. Heinze, H. Weiland, J. Tonry, H. Flewelling, A.
   Fitzsimmons, D. Young, B. Stalder. Measurers L. Denneau, A. Heinze, J.
   Tonry. 0.5-m f/2.0 Schmidt + CCD.
(Z84) Calar Alto-Schmidt  (N37.224049 W2.548210)  Spain.

Orbital elements:  A10eb70
   Perihelion 2019 May 11.430099 +/- 0.00394 TT = 10:19:20 (JD 2458614.930099)
Epoch 2019 Jun 14.0 TT = JDT 2458648.5   Earth MOID: 0.0195   Ma: 0.0442
M  21.54241655 +/- 0.009            (J2000 ecliptic)          AutoNEOCP
n   0.64171819 +/- 0.000201         Peri.  329.87102 +/- 0.0025
a   1.33118928 +/- 0.000278         Node   257.29607 +/- 0.00008
e   0.2405269 +/- 0.000157          Incl.    7.71385 +/- 0.0038
P   1.54/560.98d           H 25.4   G  0.15   U  7.0  
q 1.01100237 +/- 2.86e-6    Q 1.65137618 +/- 0.000555
From 74 observations 2019 June 9-14; mean residual 0".26
Residuals in arcseconds: 
190609 T08  .15-  .33-    190610 C95  .88+  .26-    190612 I52  .28-  .06-    
190609 T08  .55+  .18+    190610 C95  .16-  .29+    190612 I52  .19-  .21-    
190609 T08  .02+  .46+    190610 C95  .79+  .06+    190612 I52  .14+  .15-    
190609 T08  .29+  .08+    190610 C95  .31+  .30-    190613 I52  .01-  .25-    
190609 K88  .03-  .59+    190611 Z84  .07+  .27-    190613 I52  .45+  .33+    
190609 K88  .26-  .61+    190611 Z84  .05+  .05+    190613 I52  .39+  .01+    
190609 K88  .42-  .29+    190611 Z84  .05+  .00     190613 I52  .32+  .11-    
190609 L01  .59-  .31-    190611 Z84  .04-  .08+    190613 160  .08+  .10-    
190609 L01  .05-  .06-    190611 H21  .14-  .16-    190613 160  .27+  .24+    
190609 L01  .18-  .42-    190611 H21  .03-  .06-    190613 160  .01-  .01-    
190609 L01  .02+  .31-    190611 H21  .06-  .06-    190613 160  .17-  .01+    
190610 H21  .06+  .07+    190611 H21  .08-  .08-    190613 160  .35-  .01-    
190610 H21  .05+  .06+    190611 H21  .01+  .07-    190613 A17  .08-  .50+    
190610 H21  .02-  .03-    190611 H21  .12-  .01-    190613 A17  .52+  .50+    
190610 T08  .08+  .02+    190611 K88  .09+  .07+    190613 A17  .03+  .15+    
190610 T08  .44-  .34-    190611 K88  .11-  .34+    190614 204  .09-  .23-    
190610 T08  .43-  .01+    190611 K88  .24-  .11-    190614 204  .14-  .44-    
190610 T08  .47-  .19-    190611 104  .51+  .48+    190614 H21  .44-  .06+    
190610 E23  .10+  .01+    190611 104  .44-  .13-    190614 H21  .21-  .15+    
190610 E23  .18+  .26+    190611 104  .23+  .25-    190614 H21  .38-  .03-    
190610 E23  .21+  .01-    190612 H21  .16-  .05+    190614 I52  .16-  .10-    
